Regional Weather Roundup
Issued by NWS Spokane, WA

Home | Current Version | Previous Version | Text Only | Print | Product List | Glossary On
Versions: 1 2 3 4 5 6 7 8 9 10 11 12 13 14 15 16 17 18 19 20 21 22 23 24 25 26 27 28 29 30 31 32 33 34 35 36 37 38 39 40 41 42 43 44 45 46 47 48 49 50
000
NZUS01 KOTX 291110
RWROTX
EASTERN WASHINGTON/NORTHERN IDAHO ROUNDUP
NATIONAL WEATHER SERVICE, SPOKANE WA
400 AM PDT TUE JUL 29 2014

Note: "fair" indicated few or no clouds below 12,000 feet with no
significant weather and/or obstructions to visibility.

...NORTHEAST WASHINGTON AND NORTHERN IDAHO PANHANDLE...

CITY           SKY/WX    TMP DP  RH WIND       PRES   REMARKS
SPOKANE INTL   CLEAR     71  43  36 E3        30.06S
SPOKANE DOWNTO CLEAR     65  51  60 NE5       30.06R
COEUR D ALENE  CLEAR     63  48  59 SE8       30.07R
DEER PARK      CLEAR     64  48  56 CALM      30.06S
SANDPOINT      CLEAR     54  54 100 CALM      30.09R

...SOUTHEAST WASHINGTON AND SOUTHERN IDAHO PANHANDLE...

CITY           SKY/WX    TMP DP  RH WIND       PRES   REMARKS
WALLA WALLA    CLEAR     74  46  36 CALM      30.00R
PULLMAN/MOSCOW CLEAR     58  46  64 CALM      30.09R
LEWISTON       CLEAR     74  43  32 CALM      30.01R
LOWELL           N/A     61  56  83 N3        30.09R

...COLUMBIA BASIN...

CITY           SKY/WX    TMP DP  RH WIND       PRES   REMARKS
EPHRATA        CLEAR     72  42  34 E6        29.98R
MOSES LAKE     CLEAR     65  45  48 N3        29.99R
TRI CITIES     CLEAR     61  58  90 N6        29.96R
HERMISTON      CLEAR     63  49  60 SE6       29.97R
PENDLETON      CLEAR     67  45  45 E8        30.02R

...EAST SLOPES CASCADES...

CITY           SKY/WX    TMP DP  RH WIND       PRES   REMARKS
THE DALLES     CLEAR     71  57  61 NW7       29.99R
YAKIMA         CLEAR     70  54  56 W7        30.01R
ELLENSBURG     CLEAR     65  52  62 NE3       30.05R
WENATCHEE      CLEAR     78  52  40 W7        30.01R
OMAK           CLEAR     73  40  30 N10       30.01S

...SOUTHERN BRITISH COLUMBIA...

CITY           SKY/WX    TMP DP  RH WIND       PRES   REMARKS
PENTICTON      CLEAR     68  48  49 N9        30.04R
CRANBROOK      CLEAR     63  41  45 W6        30.17S

...WESTERN MONTANA...

CITY           SKY/WX    TMP DP  RH WIND       PRES   REMARKS
MISSOULA       CLEAR     63  41  44 CALM      30.17R

...NEIGHBORING CITIES...

CITY           SKY/WX    TMP DP  RH WIND       PRES   REMARKS
SEATTLE        CLEAR     64  50  60 CALM      30.11R
CALGARY        PTCLDY    54  50  87 NW6       30.17F



USA.gov is the U.S. government's official web portal to all federal, state and local government web resources and services.